Weather History for KMYR - March, 2014

Change the Weather History Date:

Thursday, March 20, 2014

  Actual Average Record
Temperature  
Mean Temperature 56 °F -  
Max Temperature 68 °F 63 °F 76 °F (2002)
Min Temperature 44 °F 43 °F 29 °F (1993)
Degree Days  
Heating Degree Days 9    
Growing Degree Days 6 (Base 50)    
Moisture  
Dew Point 45 °F    
Average Humidity 81    
Maximum Humidity 100    
Minimum Humidity 43    
Precipitation  
Precipitation 0.00 in - - ()
Sea Level Pressure  
Sea Level Pressure 30.01 in    
Wind  
Wind Speed 5 mph (SW)    
Max Wind Speed 14 mph    
Max Gust Speed -    
Visibility 9 miles    
Events      
Averages and records for this station are not official NWS values.
T = Trace of Precipitation, MM = Missing Value Source: NWS Daily Summary

Daily Weather History Graph

Daily Weather History Graph

Search for Another Location

Airport or City:

Trip Planner

Search our weather history database for the weather conditions in past years. The results will help you decide how hot, cold, wet, or windy it might be!

Date:

Astronomy

Mar. 20, 2014 Rise Set
Actual Time 7:19 AM EDT 7:27 PM EDT
Civil Twilight 6:54 AM EDT 7:52 PM EDT
Nautical Twilight 6:25 AM EDT 8:21 PM EDT
Astronomical Twilight 5:56 AM EDT 8:50 PM EDT
Moon 11:33 PM EDT (3/20) 9:35 AM EDT (3/20)
Length of Visible Light 12h 57m
Length of Day
12h 07m
Waning Gibbous, 84% of the Moon is Illuminated
Mar 20
Waning Gibbous
Mar 23
Last Quarter
Mar 30
New
Apr 7
First Quarter
Apr 15
Full

Hourly Weather History & Observations

Time (EDT) Temp. Windchill Dew Point Humidity Pressure Visibility Wind Dir Wind Speed Gust Speed Precip Events Conditions
12:15 AM 44.6 °F 43.1 °F 42.8 °F 93% 30.04 in 10.0 mi SSW 3.5 mph - N/A   Clear
12:35 AM 44.6 °F 43.1 °F 44.6 °F 100% 30.03 in 10.0 mi SSW 3.5 mph - N/A   Clear
12:55 AM 44.6 °F - 42.8 °F 93% 30.03 in 10.0 mi Calm Calm - N/A   Clear
1:15 AM 44.6 °F 42.2 °F 42.8 °F 93% 30.03 in 10.0 mi SSW 4.6 mph - N/A   Clear
1:35 AM 46.4 °F 44.3 °F 42.8 °F 87% 30.03 in 10.0 mi SSW 4.6 mph - N/A   Clear
1:55 AM 46.4 °F 43.5 °F 44.6 °F 93% 30.03 in 10.0 mi SSW 5.8 mph - N/A   Clear
2:15 AM 46.4 °F 42.9 °F 44.6 °F 93% 30.03 in 10.0 mi SW 6.9 mph - N/A   Clear
2:35 AM 46.4 °F 44.3 °F 42.8 °F 87% 30.02 in 9.0 mi SW 4.6 mph - N/A   Clear
2:55 AM 46.4 °F 43.5 °F 44.6 °F 93% 30.01 in 8.0 mi WSW 5.8 mph - N/A   Clear
3:15 AM 44.6 °F 43.1 °F 42.8 °F 93% 30.00 in 7.0 mi WSW 3.5 mph - N/A   Clear
3:35 AM 44.6 °F - 42.8 °F 93% 30.00 in 5.0 mi Calm Calm - N/A   Clear
3:55 AM 44.6 °F 42.2 °F 42.8 °F 93% 30.00 in 5.0 mi WSW 4.6 mph - N/A   Clear
4:15 AM 44.6 °F 42.2 °F 42.8 °F 93% 29.99 in 5.0 mi WSW 4.6 mph - N/A   Clear
4:35 AM 44.6 °F 42.2 °F 42.8 °F 93% 29.99 in 6.0 mi WSW 4.6 mph - N/A   Clear
4:55 AM 44.6 °F 41.4 °F 42.8 °F 93% 29.99 in 9.0 mi WSW 5.8 mph - N/A   Clear
5:15 AM 46.4 °F 43.5 °F 44.6 °F 93% 30.00 in 10.0 mi WSW 5.8 mph - N/A   Clear
5:35 AM 46.4 °F 43.5 °F 44.6 °F 93% 30.00 in 10.0 mi West 5.8 mph - N/A   Clear
5:50 AM 46.4 °F 43.5 °F 44.6 °F 93% 30.00 in 10.0 mi WSW 5.8 mph - N/A   Clear
6:45 AM 46.4 °F 43.5 °F - N/A% 30.02 in 10.0 mi West 5.8 mph - N/A   Clear
7:20 AM 46.4 °F 43.5 °F 44.6 °F 93% 30.02 in 10.0 mi WNW 5.8 mph - N/A   Clear
7:30 AM 46.4 °F 43.5 °F 44.6 °F 93% 30.02 in 10.0 mi SW 5.8 mph - N/A   Clear
7:50 AM 46.4 °F 43.5 °F 44.6 °F 93% 30.03 in 10.0 mi WSW 5.8 mph - N/A   Clear
8:45 AM 50.0 °F - 46.4 °F 87% 30.04 in 10.0 mi West 6.9 mph - N/A   Clear
9:45 AM 55.4 °F - 48.2 °F 77% 30.05 in 10.0 mi WNW 9.2 mph - N/A   Clear
10:45 AM 57.2 °F - 48.2 °F 72% 30.06 in 10.0 mi NW 11.5 mph - N/A   Clear
12:50 PM 64.4 °F - 46.4 °F 52% 30.03 in 10.0 mi WNW 6.9 mph - N/A   Clear
1:45 PM 66.2 °F - 44.6 °F 46% 30.01 in 10.0 mi NNW 13.8 mph - N/A   Clear
2:45 PM 68.0 °F - 44.6 °F 43% 29.98 in 10.0 mi NNW 8.1 mph - N/A   Clear
3:15 PM 68.0 °F - 48.2 °F 49% 29.96 in 10.0 mi SSE 13.8 mph - N/A   Clear
3:50 PM 66.2 °F - 48.2 °F 52% 29.96 in 10.0 mi South 12.7 mph - N/A   Clear
4:45 PM 64.4 °F - 50.0 °F 59% 29.95 in 10.0 mi South 11.5 mph - N/A   Clear
5:50 PM 62.6 °F - 48.2 °F 59% 29.95 in 10.0 mi SSW 13.8 mph - N/A   Clear
6:45 PM 60.8 °F - 48.2 °F 63% 29.97 in 10.0 mi SSW 11.5 mph - N/A   Clear
8:45 PM 57.2 °F - 48.2 °F 72% 30.00 in 10.0 mi SSW 9.2 mph - N/A   Clear
9:45 PM 55.4 °F - 48.2 °F 77% 30.01 in 10.0 mi SW 6.9 mph - N/A   Clear
10:55 PM 55.4 °F - 48.2 °F 77% 30.02 in 10.0 mi SSW 3.5 mph - N/A   Clear
11:15 PM 53.6 °F - 48.2 °F 82% 30.02 in 10.0 mi SSW 3.5 mph - N/A   Clear
11:35 PM 53.6 °F - 48.2 °F 82% 30.02 in 10.0 mi Calm Calm - N/A   Clear
11:55 PM 53.6 °F - 48.2 °F 82% 30.02 in 10.0 mi Calm Calm - N/A   Clear